FENGYUN 1C DEB, 30156

Orbit data source: Space-Track

FENGYUN 1C DEB, 30156 is space debris in SSO originally from a launch on Mon, 10 May 1999 UTC launched from the Taiyaun Space Center, China (TSC). Fengyun 1C debris stems from the Chinese weather satellite Fengyun-1C, which was intentionally destroyed by a Chinese anti-satellite missile in 2007. This event dramatically increased the amount of space debris, with thousands of trackable fragments posing hazards to satellites and human spaceflight. The Fengyun 1C debris cloud has become a focal point in discussions about space sustainability and the need for international regulations to prevent the creation of new debris.

Loading next visibility...
Identifier
30156, 1999-025TM
Orbit
SSO
Country
Flag of CNCN / PRC
Related business
Manufacturer
Unknown
Mission
Spacecraft
Bus & Motor
Unknown
Mass
Unknown
Launch date (UTC)
1999-05-10 (27 years ago)
Launch vehicle
Unknown
Launch site
Taiyaun Space Center, China (TSC)
Object type
Payload
Rocket body
Debris
Shape & HBR
Unknown shape, 0.1 m
Radar Cross Section
Small (<0.1 m²)

Expand to show TLE details & history
Last TLE update: 12 hours ago

TLE from 12 hours ago
0 FENGYUN 1C DEB
1 30156U 99025TM  26062.70535045  .00002811  00000-0  23109-2 0  9994
2 30156  98.9242  30.2633 0201185  45.0695  78.6881 13.81104724958083
Epoch: 2026-03-03T16:55Z
TLE epoch observation values (Epoch: 2026-03-03T16:55:42.278Z)
Latitude
53.12772°
Longitude
166.87696°
Altitude
942.501 km
Speed
7.399 km/s
True Right ascension
14h 49m 08s
True Declination
52° 57' 60"
Sunlit
Object was in daylight at epoch
Visualization orbit readout
Latitude
Unknown
Longitude
Unknown
Altitude
Unknown
Speed
Unknown
Apparent Right ascension
Unknown
Apparent Declination
Unknown
Sunlit
N/A
Visualization observer readout
Local Sidereal Time
08:45:41
Azimuth
Unknown
Elevation
Unknown
Doppler factor
Unknown
Orbital elements
Apogee altitude
1,104.766 km
Perigee altitude
809.615 km
Semi-major axis
7,335.327 km
Eccentricity
0.02012
Inclination
98.9242°
RAAN
30.2633°
Arg. of periapsis
45.0695°
True anomaly
80.95933°
Mean anomaly
78.6881°
Eccentric anomaly
79.82267°
Mean motion
3.45473 °/min
Orbital period
104.21 mins
BSTAR
0.0023109
Loading maneuver chart data...
Computing Atmospheric mass density...

Documentation

Showing up to 5 results
|